Weather History for Wichita Falls, TX

Change the Weather History Date:

Saturday, April 5, 2014

  Actual Average Record
Temperature  
Mean Temperature 52 °F 60 °F  
Max Temperature 59 °F 73 °F 94 °F (1967)
Min Temperature 45 °F 46 °F 27 °F (1970)
Degree Days  
Heating Degree Days 13 7  
Month to date heating degree days 27 37  
Since 1 July heating degree days 3245 2840  
Cooling Degree Days 0 1  
Month to date cooling degree days 16 5  
Year to date cooling degree days 32 27  
Growing Degree Days 2 (Base 50)    
Moisture  
Dew Point 33 °F    
Average Humidity 54    
Maximum Humidity 80    
Minimum Humidity 28    
Precipitation  
Precipitation 0.02 in 0.07 in 1.50 in (1918)
Month to date precipitation 0.02 0.31  
Year to date precipitation 2.55 5.40  
Snow  
Snow 0.00 in 0.00 in - ()
Month to date snowfall 0.0 0.0  
Since 1 July snowfall 5.0 3.9  
Snow Depth 0.00 in    
Sea Level Pressure  
Sea Level Pressure 30.03 in    
Wind  
Wind Speed 11 mph (East)    
Max Wind Speed 21 mph    
Max Gust Speed 26 mph    
Visibility 10 miles    
Events Rain    
T = Trace of Precipitation, MM = Missing Value Source: NWS Daily Summary

Daily Weather History Graph

Daily Weather History Graph

Search for Another Location

Airport:

Trip Planner

Search our weather history database for the weather conditions in past years. The results will help you decide how hot, cold, wet, or windy it might be!

Date:

Astronomy

Apr. 05, 2014 Rise Set
Actual Time 7:15 AM CDT 7:57 PM CDT
Civil Twilight 6:50 AM CDT 8:23 PM CDT
Nautical Twilight 6:20 AM CDT 8:52 PM CDT
Astronomical Twilight 5:50 AM CDT 9:23 PM CDT
Moon 11:34 AM CDT (4/5) 12:59 AM CDT (4/5)
Length of Visible Light 13h 32m
Length of Day
12h 41m
Waxing Crescent, 34% of the Moon is Illuminated
Apr 5
Waxing Crescent
Apr 7
First Quarter
Apr 15
Full
Apr 22
Last Quarter
Apr 29
New

Hourly Weather History & Observations

Time (CDT) Temp. Windchill Dew Point Humidity Pressure Visibility Wind Dir Wind Speed Gust Speed Precip Events Conditions
12:52 AM 46.9 °F - 28.9 °F 50% 30.10 in 10.0 mi ENE 5.8 mph - N/A   Clear
1:52 AM 46.9 °F - 28.9 °F 50% 30.09 in 10.0 mi ENE 5.8 mph - N/A   Clear
2:52 AM 46.0 °F 42.5 °F 28.9 °F 51% 30.09 in 10.0 mi ESE 6.9 mph - N/A   Clear
3:52 AM 46.9 °F - 28.0 °F 48% 30.08 in 10.0 mi SE 6.9 mph - N/A   Clear
4:52 AM 46.0 °F 43.1 °F 28.9 °F 51% 30.07 in 10.0 mi SE 5.8 mph - N/A   Clear
5:52 AM 46.0 °F 44.8 °F 30.0 °F 54% 30.07 in 10.0 mi ESE 3.5 mph - N/A   Clear
6:52 AM 46.0 °F 43.1 °F 30.9 °F 56% 30.07 in 10.0 mi ENE 5.8 mph - N/A   Clear
7:52 AM 46.9 °F - 30.9 °F 54% 30.09 in 10.0 mi ESE 5.8 mph - N/A   Clear
8:52 AM 48.9 °F - 30.9 °F 50% 30.10 in 10.0 mi ESE 11.5 mph - N/A   Clear
9:52 AM 50.0 °F - 30.0 °F 46% 30.10 in 10.0 mi ESE 12.7 mph - N/A   Clear
10:52 AM 52.0 °F - 28.9 °F 41% 30.12 in 10.0 mi SE 12.7 mph - N/A   Scattered Clouds
11:52 AM 54.0 °F - 27.0 °F 35% 30.09 in 10.0 mi SE 17.3 mph - N/A   Partly Cloudy
12:52 PM 57.0 °F - 25.0 °F 29% 30.06 in 10.0 mi ESE 19.6 mph 24.2 mph N/A   Clear
1:52 PM 54.0 °F - 27.0 °F 35% 30.03 in 10.0 mi ESE 19.6 mph - N/A   Overcast
2:52 PM 54.0 °F - 28.0 °F 37% 30.00 in 10.0 mi ESE 15.0 mph - N/A   Overcast
3:52 PM 59.0 °F - 30.9 °F 35% 29.96 in 10.0 mi East 11.5 mph - N/A   Mostly Cloudy
4:52 PM 57.0 °F - 32.0 °F 39% 29.94 in 10.0 mi East 15.0 mph - N/A   Mostly Cloudy
5:52 PM 55.0 °F - 41.0 °F 59% 29.94 in 8.0 mi East 8.1 mph - 0.00 in Rain Light Rain
6:52 PM 52.0 °F - 43.0 °F 71% 29.93 in 10.0 mi ENE 10.4 mph - 0.01 in Rain Light Rain
7:52 PM 50.0 °F - 44.1 °F 80% 29.94 in 10.0 mi NE 9.2 mph - 0.01 in   Overcast
8:52 PM 50.0 °F - 45.0 °F 83% 29.96 in 10.0 mi East 6.9 mph - N/A   Overcast
9:52 PM 51.1 °F - 41.0 °F 68% 29.96 in 10.0 mi East 12.7 mph - N/A   Mostly Cloudy
10:52 PM 51.1 °F - 41.0 °F 68% 29.96 in 10.0 mi East 12.7 mph - N/A   Overcast
11:52 PM 50.0 °F - 41.0 °F 71% 29.97 in 10.0 mi East 9.2 mph - N/A   Overcast